1497117600.75,3437,18.94,74080.5,1.53,-26.61,-26.61,0,*49
1497117601.98,3438,18.94,74078.5,1.55,-26.49,-26.45,0,*4C
1497117603.17,3439,18.94,74078.5,1.53,-26.49,-26.49,0,*47
1497117604.4,3440,18.94,74082.5,1.55,-26.49,-26.45,0,*43
1497117605.62,3441,18.94,74078.3,1.55,-26.49,-26.49,0,*4E
1497117606.84,3442,18.94,74078.8,1.55,-26.61,-26.49,0,*47
1497117608.09,3443,18.94,74078.5,1.55,-26.77,-26.49,0,*41
1497117609.28,3444,18.94,74076.0,1.53,-26.49,-26.49,0,*4D
1497117610.48,3445,18.94,74076.5,1.53,-26.61,-26.49,0,*46
1497117611.7,3446,18.94,74078.0,1.55,-26.61,-26.45,0,*4F
1497117612.89,3447,18.94,74080.0,1.53,-26.61,-26.49,0,*44
1497117614.11,3448,18.94,74078.5,1.55,-26.61,-26.61,0,*47
1497117615.31,3449,18.94,74078.8,1.53,-26.61,-26.45,0,*46
1497117616.5,3450,18.94,74080.0,1.53,-26.45,-26.45,0,*48
1497117617.7,3451,18.94,74078.3,1.53,-26.45,-26.45,0,*49
1497117618.92,3452,18.88,74078.0,1.55,-26.45,-26.49,0,*40
1497117620.11,3453,18.94,74080.3,1.53,-26.61,-26.45,0,*4D
1497117621.31,3454,18.94,74082.0,1.53,-26.45,-26.45,0,*4C
1497117622.5,3455,18.88,74078.3,1.53,-26.45,-26.45,0,*4D
1497117623.69,3456,18.94,74080.5,1.53,-26.45,-26.45,0,*4E
1497117624.89,3457,18.94,74078.3,1.53,-26.49,-26.49,0,*4F
1497117626.11,3458,18.94,74076.3,1.55,-26.49,-26.49,0,*46
1497117627.31,3459,18.94,74078.0,1.53,-26.49,-26.45,0,*4D
1497117628.55,3460,18.94,74080.0,1.51,-26.55,-26.49,0,*44
1497117629.79,3461,18.94,74078.0,1.51,-26.55,-26.49,0,*45
1497117631.01,3462,18.94,74078.3,1.51,-26.49,-26.49,0,*4B
1497117632.27,3463,18.94,74082.0,1.51,-26.33,-26.39,0,*40
1497117633.5,3464,18.88,74076.5,1.51,-26.49,-26.39,0,*4A
1497117634.75,3465,18.94,74080.5,1.51,-26.65,-26.55,0,*4F
1497117635.99,3466,18.94,74084.0,1.51,-26.55,-26.49,0,*42
1497117637.26,3467,18.94,74078.8,1.51,-26.55,-26.55,0,*4E
1497117638.5,3468,18.94,74082.5,1.51,-26.55,-26.49,0,*4C
1497117639.74,3469,18.88,74078.5,1.51,-26.55,-26.49,0,*4D
1497117640.94,3470,18.88,74078.0,1.49,-26.39,-26.49,0,*46
1497117642.16,3471,18.94,74082.3,1.51,-26.39,-26.49,0,*4E
1497117643.38,3472,18.94,74080.8,1.49,-26.45,-26.55,0,*42
1497117644.6,3473,18.94,74084.8,1.51,-26.39,-26.49,0,*4C
1497117645.82,3474,18.94,74080.0,1.51,-26.39,-26.49,0,*4B
1497117647.06,3475,18.88,74080.0,1.51,-26.71,-26.61,0,*4C
1497117648.3,3476,18.94,74080.8,1.49,-26.55,-26.55,0,*47
1497117649.53,3477,18.88,74082.0,1.51,-26.65,-26.49,0,*41
1497117650.77,3478,18.88,74078.5,1.51,-26.55,-26.49,0,*4D
1497117651.99,3479,18.88,74078.8,1.51,-26.49,-26.49,0,*41
1497117653.21,3480,18.94,74082.0,1.49,-26.55,-26.61,0,*49
1497117654.42,3481,18.94,74080.5,1.49,-26.61,-26.71,0,*4E
1497117655.68,3482,18.94,74082.3,1.51,-26.65,-26.55,0,*46
1497117656.94,3483,18.94,74082.0,1.51,-26.55,-26.55,0,*44
1497117658.14,3484,18.94,74080.0,1.49,-26.61,-26.61,0,*4A
1497117659.36,3485,18.88,74082.3,1.49,-26.61,-26.55,0,*4C
1497117660.58,3486,18.88,74080.3,1.49,-26.61,-26.71,0,*49
1497117661.82,3487,18.94,74082.5,1.49,-26.71,-26.77,0,*4F
1497117663.04,3488,18.94,74080.3,1.49,-26.71,-26.61,0,*47
1497117664.23,3489,18.88,74078.8,1.49,-26.61,-26.61,0,*47
1497117665.43,3490,18.94,74082.5,1.49,-26.61,-26.61,0,*4F
1497117666.65,3491,18.94,74080.8,1.49,-26.61,-26.77,0,*49
1497117667.92,3492,18.94,74080.3,1.47,-26.71,-26.71,0,*43
1497117669.17,3493,18.88,74078.5,1.47,-26.61,-26.71,0,*43
1497117670.39,3494,18.88,74076.5,1.45,-26.71,-26.65,0,*42
1497117671.63,3495,18.88,74080.5,1.47,-26.61,-26.71,0,*45
1497117672.86,3496,18.88,74082.3,1.47,-26.61,-26.61,0,*47
1497117674.06,3497,18.88,74080.5,1.45,-26.65,-26.61,0,*40
1497117675.33,3498,18.94,74078.5,1.47,-26.55,-26.55,0,*49
1497117676.58,3499,18.94,74082.5,1.47,-26.55,-26.61,0,*4F
1497117677.77,3500,18.94,74082.5,1.45,-26.61,-26.65,0,*4F
1497117679.0,3501,18.88,74076.5,1.45,-26.55,-26.65,0,*49
1497117680.26,3502,18.88,74080.8,1.47,-26.55,-26.55,0,*4B
1497117681.49,3503,18.88,74080.8,1.45,-26.49,-26.77,0,*45
1497117682.71,3504,18.88,74076.8,1.47,-26.45,-26.61,0,*4B
1497117683.92,3505,18.88,74080.0,1.45,-26.61,-26.65,0,*4A
1497117685.11,3506,18.88,74076.0,1.45,-26.61,-26.65,0,*49
1497117686.36,3507,18.88,74082.8,1.47,-26.55,-26.61,0,*49
1497117687.56,3508,18.94,74082.0,1.45,-26.65,-26.61,0,*47
1497117688.79,3509,18.94,74080.8,1.43,-26.61,-26.65,0,*40
1497117690.03,3510,18.88,74080.0,1.47,-26.55,-26.61,0,*4F
1497117691.23,3511,18.88,74078.3,1.45,-26.61,-26.65,0,*4F
1497117692.48,3512,18.88,74080.0,1.47,-26.45,-26.55,0,*4B
1497117693.7,3513,18.94,74080.8,1.47,-26.45,-26.65,0,*49
1497117694.9,3514,18.88,74076.5,1.45,-26.45,-26.65,0,*4C
1497117696.17,3515,18.88,74082.8,1.47,-26.55,-26.55,0,*4D
1497117697.37,3516,18.94,74084.5,1.45,-26.49,-26.65,0,*42
1497117698.57,3517,18.88,74080.8,1.45,-26.49,-26.61,0,*47
1497117699.79,3518,18.88,74082.8,1.43,-26.45,-26.61,0,*42
1497117701.01,3519,18.88,74082.5,1.43,-26.39,-26.49,0,*42
1497117702.23,3520,18.94,74082.5,1.43,-26.45,-26.49,0,*43
1497117703.45,3521,18.88,74082.3,1.43,-26.45,-26.49,0,*42
1497117704.67,3522,18.88,74082.0,1.43,-26.45,-26.49,0,*41
1497117705.87,3523,18.88,74080.3,1.39,-26.49,-26.61,0,*4B
1497117707.1,3524,18.88,74080.5,1.39,-26.65,-26.71,0,*43
1497117708.34,3525,18.88,74082.8,1.39,-26.55,-26.71,0,*41
1497117709.56,3526,18.88,74082.5,1.39,-26.55,-26.65,0,*47
1497117710.76,3527,18.88,74082.5,1.45,-26.45,-26.61,0,*48
1497117711.96,3528,18.88,74080.8,1.39,-26.45,-26.61,0,*4C
1497117713.16,3529,18.94,74082.3,1.39,-26.49,-26.65,0,*45
1497117714.41,3530,18.88,74080.3,1.39,-26.55,-26.71,0,*45
1497117715.61,3531,18.88,74082.3,1.39,-26.49,-26.65,0,*4C
1497117716.81,3532,18.88,74080.0,1.39,-26.49,-26.65,0,*4F
1497117718.06,3533,18.88,74080.8,1.39,-26.55,-26.81,0,*49
1497117719.29,3534,18.88,74082.8,1.39,-26.65,-26.81,0,*4D
1497117720.54,3535,18.88,74082.8,1.43,-26.49,-26.77,0,*46
1497117721.77,3536,18.88,74080.3,1.39,-26.65,-26.81,0,*4F
1497117722.97,3537,18.88,74080.3,1.39,-26.49,-26.65,0,*4A
1497117724.2,3538,18.88,74080.5,1.43,-26.45,-26.61,0,*40
1497117725.4,3539,18.88,74082.5,1.39,-26.49,-26.65,0,*44
1497117726.64,3540,18.88,74082.0,1.39,-26.55,-26.71,0,*42
1497117727.84,3541,18.88,74082.0,1.39,-26.49,-26.65,0,*4B
1497117729.07,3542,18.88,74080.0,1.43,-26.49,-26.61,0,*41
1497117730.31,3543,18.88,74080.3,1.39,-26.55,-26.71,0,*41
1497117731.54,3544,18.88,74080.8,1.43,-26.49,-26.65,0,*43
1497117732.77,3545,18.88,74082.0,1.39,-26.65,-26.71,0,*44
1497117734.01,3546,18.88,74082.5,1.39,-26.55,-26.71,0,*44
1497117735.26,3547,18.88,74080.3,1.37,-26.65,-26.71,0,*48
1497117736.52,3548,18.88,74078.5,1.37,-26.55,-26.71,0,*44
1497117737.76,3549,18.88,74082.5,1.37,-26.55,-26.65,0,*40
1497117739.01,3550,18.88,74078.0,1.37,-26.45,-26.55,0,*4A
1497117740.25,3551,18.94,74084.3,1.39,-26.55,-26.71,0,*42
1497117741.52,3552,18.88,74080.5,1.37,-26.71,-26.81,0,*46
1497117742.79,3553,18.88,74082.8,1.37,-26.55,-26.81,0,*41
1497117744.0,3554,18.88,74084.5,1.35,-26.61,-26.93,0,*40
1497117745.25,3555,18.88,74082.8,1.37,-26.49,-26.81,0,*4A
1497117746.47,3556,18.88,74080.8,1.37,-26.45,-26.65,0,*4F
1497117747.72,3557,18.88,74080.3,1.37,-26.49,-26.71,0,*47
1497117748.94,3558,18.88,74080.8,1.37,-26.49,-26.65,0,*4D
1497117750.2,3559,18.88,74082.0,1.37,-26.55,-26.71,0,*44
1497117751.47,3560,18.88,74082.0,1.37,-26.55,-26.81,0,*41
1497117752.69,3561,18.88,74080.0,1.35,-26.71,-26.87,0,*42
1497117753.93,3562,18.88,74080.5,1.37,-26.55,-26.65,0,*49
1497117755.19,3563,18.88,74080.8,1.37,-26.55,-26.71,0,*4D
1497117756.46,3564,18.88,74082.5,1.37,-26.55,-26.81,0,*45
1497117757.71,3565,18.88,74082.8,1.37,-26.49,-26.71,0,*46
1497117758.95,3566,18.88,74078.0,1.37,-26.45,-26.71,0,*49
1497117760.17,3567,18.88,74080.3,1.37,-26.45,-26.65,0,*4D
1497117761.39,3568,18.88,74082.5,1.37,-26.45,-26.65,0,*42
1497117762.63,3569,18.88,74076.8,1.35,-26.55,-26.71,0,*45
1497117763.82,3570,18.88,74078.8,1.35,-26.49,-26.61,0,*41
1497117765.06,3571,18.88,74080.5,1.35,-26.55,-26.71,0,*4C
1497117766.3,3572,18.88,74084.0,1.35,-26.55,-26.71,0,*4F
1497117767.56,3573,18.88,74084.5,1.33,-26.55,-26.81,0,*47
1497117768.81,3574,18.88,74080.0,1.35,-26.55,-26.77,0,*4F
1497117770.04,3575,18.88,74082.8,1.35,-26.55,-26.71,0,*48
1497117771.26,3576,18.88,74080.3,1.35,-26.49,-26.71,0,*46
1497117772.5,3577,18.88,74082.0,1.35,-26.55,-26.71,0,*4A
1497117773.74,3578,18.88,74078.5,1.35,-26.55,-26.77,0,*43
1497117774.96,3579,18.88,74082.0,1.35,-26.55,-26.87,0,*4D
1497117776.17,3580,18.88,74078.5,1.35,-26.55,-26.87,0,*4B
1497117777.41,3581,18.88,74082.0,1.35,-26.55,-26.77,0,*45
1497117778.63,3582,18.88,74080.5,1.35,-26.49,-26.71,0,*4D
1497117779.85,3583,18.88,74084.5,1.35,-26.39,-26.71,0,*4B
1497117781.07,3584,18.88,74080.8,1.33,-26.39,-26.65,0,*4F
1497117782.34,3585,18.88,74086.3,1.33,-26.55,-26.81,0,*4E
1497117783.61,3586,18.88,74086.0,1.33,-26.55,-26.81,0,*4D
1497117784.87,3587,18.88,74084.0,1.33,-26.55,-26.77,0,*45
1497117786.12,3588,18.88,74080.8,1.33,-26.45,-26.81,0,*42
1497117787.36,3589,18.88,74084.3,1.33,-26.61,-26.77,0,*4C
1497117788.61,3590,18.88,74078.3,1.31,-26.55,-26.77,0,*41
1497117789.86,3591,18.88,74080.0,1.33,-26.61,-26.81,0,*4C
1497117791.1,3592,18.88,74082.0,1.31,-26.55,-26.81,0,*4A
1497117792.32,3593,18.88,74078.5,1.31,-26.61,-26.77,0,*45
1497117793.55,3594,18.88,74078.3,1.31,-26.45,-26.77,0,*44
1497117794.77,3595,18.88,74076.8,1.31,-26.45,-26.81,0,*4C
1497117796.04,3596,18.88,74080.5,1.33,-26.55,-26.77,0,*45
1497117797.26,3597,18.88,74082.8,1.31,-26.39,-26.77,0,*4C
1497117798.48,3598,18.88,74082.0,1.33,-26.39,-26.61,0,*46
1497117799.7,3599,18.88,74084.8,1.33,-26.39,-26.65,0,*43
1497117800.92,3600,18.88,74086.0,1.31,-26.29,-26.65,0,*43
1497117802.12,3601,18.88,74086.0,1.31,-26.39,-26.65,0,*43
1497117803.34,3602,18.88,74084.0,1.31,-26.29,-26.61,0,*45
1497117804.56,3603,18.88,74080.5,1.31,-26.29,-26.61,0,*44
1497117805.81,3604,18.88,74082.0,1.31,-26.29,-26.55,0,*44
1497117807.02,3605,18.88,74084.3,1.33,-26.23,-26.61,0,*4A
1497117808.21,3606,18.88,74084.0,1.31,-26.23,-26.61,0,*4B
1497117809.46,3607,18.88,74082.5,1.33,-26.29,-26.61,0,*42
1497117810.67,3608,18.88,74084.8,1.31,-26.23,-26.55,0,*42
1497117811.88,3609,18.88,74082.5,1.31,-26.23,-26.55,0,*43
1497117813.07,3610,18.88,74082.3,1.31,-26.23,-26.65,0,*48
1497117814.3,3611,18.88,74082.5,1.31,-26.29,-26.65,0,*43
1497117815.52,3612,18.88,74082.3,1.31,-26.29,-26.65,0,*40
1497117816.71,3613,18.88,74080.0,1.31,-26.23,-26.45,0,*49
1497117817.93,3614,18.88,74082.3,1.31,-26.29,-26.61,0,*42
1497117819.12,3615,18.88,74082.3,1.31,-26.23,-26.61,0,*49
1497117820.33,3616,18.88,74084.5,1.31,-26.23,-26.55,0,*4D
1497117821.52,3617,18.88,74082.5,1.31,-26.23,-26.45,0,*4D
1497117822.74,3618,18.88,74086.3,1.31,-26.23,-26.55,0,*43
1497117823.96,3619,18.88,74084.5,1.31,-26.29,-26.65,0,*4B
1497117825.18,3620,18.88,74082.0,1.31,-26.29,-26.65,0,*41
1497117826.37,3621,18.88,74082.5,1.31,-26.23,-26.61,0,*4E
1497117827.64,3622,18.88,74086.5,1.29,-26.29,-26.71,0,*4F
1497117828.89,3623,18.88,74080.0,1.29,-26.29,-26.65,0,*4B
1497117830.11,3624,18.88,74082.5,1.31,-26.29,-26.65,0,*45
1497117831.33,3625,18.88,74080.5,1.31,-26.29,-26.65,0,*44
1497117832.6,3626,18.88,74082.5,1.29,-26.29,-26.71,0,*4B
1497117833.87,3627,18.88,74080.3,1.29,-26.29,-26.71,0,*4A
1497117835.14,3628,18.88,74084.3,1.29,-26.29,-26.71,0,*45
1497117836.36,3629,18.88,74082.8,1.31,-26.13,-26.61,0,*45
1497117837.6,3630,18.88,74080.5,1.29,-26.13,-26.65,0,*40
1497117838.85,3631,18.88,74080.8,1.29,-26.13,-26.61,0,*45
1497117840.09,3632,18.88,74082.5,1.29,-26.13,-26.61,0,*46
1497117841.31,3633,18.88,74080.3,1.27,-26.13,-26.61,0,*49
1497117842.54,3634,18.88,74080.8,1.29,-26.03,-26.65,0,*45
1497117843.78,3635,18.88,74080.3,1.29,-25.97,-26.61,0,*4E
1497117845.03,3636,18.88,74080.5,1.29,-25.97,-26.61,0,*4D
1497117846.25,3637,18.88,74078.8,1.27,-25.97,-26.61,0,*42
1497117847.47,3638,18.88,74080.0,1.27,-25.97,-26.49,0,*47
1497117848.69,3639,18.88,74082.3,1.29,-25.87,-26.61,0,*43
1497117849.94,3640,18.88,74080.5,1.29,-25.97,-26.61,0,*4C
1497117851.14,3641,18.88,74084.3,1.27,-25.87,-26.61,0,*42
1497117852.35,3642,18.88,74082.5,1.27,-25.81,-26.49,0,*4D
1497117853.57,3643,18.88,74082.0,1.27,-25.81,-26.45,0,*40
1497117854.79,3644,18.88,74082.5,1.27,-25.81,-26.45,0,*47
1497117856.04,3645,18.88,74086.5,1.29,-25.61,-26.29,0,*4C
1497117857.26,3646,18.88,74086.0,1.27,-25.61,-26.33,0,*4A
1497117858.48,3647,18.88,74084.5,1.29,-25.61,-26.45,0,*44
1497117859.71,3648,18.88,74086.5,1.27,-25.61,-26.33,0,*44
1497117860.9,3649,18.88,74086.8,1.27,-25.61,-26.45,0,*44
1497117862.15,3650,18.88,74084.5,1.29,-25.49,-26.33,0,*49
1497117863.37,3651,18.88,74084.0,1.27,-25.49,-26.17,0,*40
1497117864.6,3652,18.88,74086.0,1.27,-25.35,-26.29,0,*45
1497117865.79,3653,18.88,74086.3,1.27,-25.19,-26.03,0,*42
1497117867.01,3654,18.88,74086.0,1.27,-25.19,-26.13,0,*44
1497117868.24,3655,18.88,74086.3,1.27,-25.13,-26.13,0,*4F
1497117869.46,3656,18.88,74086.8,1.27,-25.13,-26.13,0,*4C
1497117870.73,3657,18.88,74084.5,1.29,-25.03,-26.17,0,*46
1497117871.95,3658,18.88,74084.5,1.27,-25.13,-26.13,0,*42
1497117873.2,3659,18.88,74084.0,1.27,-25.03,-26.13,0,*42
1497117874.45,3660,18.88,74084.3,1.27,-25.03,-26.13,0,*48
1497117875.72,3661,18.88,74082.0,1.29,-24.87,-26.13,0,*4A
1497117876.98,3662,18.88,74086.8,1.29,-24.71,-25.87,0,*4E
1497117878.2,3663,18.88,74084.8,1.27,-24.67,-25.87,0,*46
1497117879.43,3664,18.88,74086.8,1.27,-24.51,-25.81,0,*42
1497117880.66,3665,18.88,74086.3,1.27,-24.47,-25.81,0,*44
1497117881.89,3666,18.88,74084.0,1.27,-24.35,-25.71,0,*4D
1497117883.12,3667,18.88,74084.8,1.27,-24.31,-25.71,0,*48
1497117884.36,3668,18.88,74084.5,1.27,-24.35,-25.71,0,*43
1497117885.59,3669,18.88,74084.5,1.27,-24.31,-25.71,0,*46
1497117886.84,3670,18.88,74086.3,1.29,-24.15,-25.65,0,*43
1497117888.07,3671,18.88,74086.8,1.27,-23.99,-25.61,0,*4B
1497117889.27,3672,18.88,74086.3,1.27,-23.89,-25.65,0,*4D
1497117890.5,3673,18.88,74084.5,1.27,-23.75,-25.45,0,*4D
1497117891.74,3674,18.88,74084.8,1.27,-23.69,-25.45,0,*47
1497117892.98,3675,18.88,74090.0,1.27,-23.69,-25.45,0,*46
1497117894.22,3676,18.88,74094.0,1.29,-23.59,-25.45,0,*48
1497117895.44,3677,18.88,74086.5,1.29,-23.39,-25.35,0,*48
1497117896.68,3678,18.88,74084.8,1.27,-23.49,-25.45,0,*49
1497117897.92,3679,18.88,74088.0,1.29,-23.39,-25.29,0,*4B
1497117899.15,3680,18.88,74084.0,1.31,-23.03,-25.09,0,*4F
1497117900.4,3681,18.88,74086.3,1.29,-23.19,-25.13,0,*47
1497117901.6,3682,18.88,74084.8,1.31,-22.97,-25.13,0,*4A
1497117902.81,3683,18.88,74086.5,1.31,-22.97,-25.09,0,*40
1497117904.01,3684,18.88,74086.3,1.31,-22.83,-25.13,0,*49
1497117905.21,3685,18.88,74084.5,1.31,-22.83,-25.13,0,*48
1497117906.4,3686,18.81,74080.5,1.31,-22.83,-25.23,0,*48
1497117907.6,3687,18.88,74084.0,1.31,-22.67,-25.09,0,*4B
1497117908.8,3688,18.88,74084.0,1.31,-22.57,-24.93,0,*45
1497117910.05,3689,18.88,74086.3,1.29,-22.53,-25.03,0,*41
1497117911.25,3690,18.88,74084.0,1.31,-22.37,-24.97,0,*4E
1497117912.47,3691,18.88,74084.8,1.31,-22.31,-24.93,0,*4D
1497117913.72,3692,18.88,74086.8,1.31,-22.21,-24.83,0,*4E
1497117914.95,3693,18.88,74084.5,1.29,-22.07,-24.83,0,*42
1497117916.19,3694,18.88,74086.8,1.29,-22.07,-24.83,0,*45
1497117917.44,3695,18.88,74084.5,1.29,-21.93,-24.83,0,*4A
1497117918.66,3696,18.88,74084.8,1.33,-21.73,-24.77,0,*47
1497117919.88,3697,18.88,74086.8,1.33,-21.63,-24.61,0,*40
1497117921.07,3698,18.81,74082.3,1.31,-21.43,-24.61,0,*4F
1497117922.29,3699,18.88,74080.3,1.31,-21.43,-24.41,0,*4C
1497117923.48,3700,18.88,74084.0,1.31,-21.43,-24.51,0,*4C
1497117924.7,3701,18.88,74084.3,1.31,-21.27,-24.51,0,*4F
1497117925.9,3702,18.88,74082.0,1.31,-21.13,-24.31,0,*4D
1497117927.14,3703,18.81,74082.8,1.31,-20.79,-24.15,0,*47
1497117928.36,3704,18.88,74086.0,1.31,-20.63,-23.85,0,*45
1497117929.63,3705,18.88,74088.3,1.33,-20.53,-23.85,0,*45
1497117930.9,3706,18.88,74084.3,1.33,-20.53,-23.85,0,*46
1497117932.14,3707,18.88,74084.5,1.31,-20.35,-23.85,0,*45
1497117933.36,3708,18.88,74088.5,1.31,-20.43,-23.95,0,*4A
1497117934.58,3709,18.88,74084.8,1.31,-20.29,-23.85,0,*46
1497117935.81,3710,18.81,74084.8,1.33,-20.15,-23.79,0,*40
1497117937.05,3711,18.88,74084.0,1.33,-20.15,-23.79,0,*41
1497117938.27,3712,18.81,74080.5,1.33,-19.91,-23.79,0,*44
1497117939.48,3713,18.81,74082.5,1.35,-19.71,-23.65,0,*40
1497117940.7,3714,18.88,74084.5,1.35,-19.71,-23.65,0,*47
1497117941.94,3715,18.81,74080.5,1.35,-19.65,-23.65,0,*43
1497117943.21,3716,18.88,74086.5,1.33,-19.57,-23.65,0,*47
1497117944.42,3717,18.88,74084.8,1.35,-19.51,-23.43,0,*42
1497117945.61,3718,18.88,74084.3,1.35,-19.37,-23.39,0,*40
1497117946.87,3719,18.88,74084.0,1.33,-19.27,-23.43,0,*4B
1497117948.1,3720,18.88,74086.5,1.35,-19.07,-23.23,0,*43
1497117949.29,3721,18.88,74086.3,1.35,-19.07,-23.13,0,*41
1497117950.51,3722,18.88,74086.5,1.35,-18.93,-23.13,0,*4E
1497117951.71,3723,18.88,74084.0,1.35,-18.79,-22.93,0,*42
1497117952.98,3724,18.81,74080.3,1.37,-18.59,-22.73,0,*4B
1497117954.2,3725,18.88,74082.5,1.35,-18.65,-22.77,0,*43
1497117955.41,3726,18.81,74084.0,1.35,-18.59,-22.67,0,*4E
1497117956.61,3727,18.88,74086.3,1.35,-18.41,-22.67,0,*46
1497117957.8,3728,18.81,74082.8,1.35,-18.41,-22.67,0,*49
1497117959.03,3729,18.88,74084.3,1.35,-18.31,-22.67,0,*4F
1497117960.25,3730,18.81,74082.3,1.37,-18.21,-22.63,0,*40
1497117961.44,3731,18.88,74084.8,1.35,-18.11,-22.63,0,*40
1497117962.67,3732,18.81,74082.8,1.35,-17.97,-22.53,0,*41
1497117963.91,3733,18.81,74080.8,1.37,-17.93,-22.41,0,*45
1497117965.13,3734,18.81,74080.5,1.35,-17.83,-22.47,0,*47
1497117966.33,3735,18.81,74080.8,1.35,-17.69,-22.27,0,*44
1497117967.52,3736,18.81,74080.8,1.35,-17.69,-22.27,0,*47
1497117968.77,3737,18.88,74086.3,1.37,-17.45,-22.07,0,*48
1497117969.99,3738,18.88,74086.5,1.35,-17.41,-22.03,0,*45
1497117971.21,3739,18.81,74086.3,1.35,-17.35,-21.97,0,*49
1497117972.46,3740,18.81,74084.3,1.39,-17.17,-21.83,0,*4E
1497117973.68,3741,18.81,74080.8,1.37,-16.93,-21.77,0,*47
1497117974.9,3742,18.81,74082.3,1.37,-16.93,-21.63,0,*41
1497117976.11,3743,18.81,74082.0,1.37,-16.79,-21.63,0,*44
1497117977.33,3744,18.81,74082.0,1.35,-16.83,-21.53,0,*47
1497117978.58,3745,18.81,74082.3,1.35,-16.69,-21.53,0,*42
1497117979.8,3746,18.81,74082.8,1.37,-16.59,-21.39,0,*4C
1497117981.0,3747,18.81,74080.3,1.35,-16.55,-21.39,0,*43
1497117982.2,3748,18.81,74080.0,1.39,-16.45,-21.17,0,*4D
1497117983.45,3749,18.81,74080.3,1.39,-16.27,-21.03,0,*4D
1497117984.69,3750,18.81,74078.8,1.39,-16.17,-20.89,0,*45
1497117985.93,3751,18.88,74080.8,1.37,-15.99,-20.83,0,*45
1497117987.15,3752,18.88,74082.5,1.37,-15.99,-20.73,0,*49
1497117988.37,3753,18.81,74082.5,1.39,-15.89,-20.73,0,*47
1497117989.58,3754,18.81,74082.8,1.39,-15.71,-20.59,0,*4F
1497117990.81,3755,18.81,74080.0,1.39,-15.71,-20.53,0,*44
1497117992.06,3756,18.81,74082.0,1.37,-15.57,-20.43,0,*4C
1497117993.33,3757,18.81,74080.3,1.37,-15.43,-20.35,0,*49
1497117994.57,3758,18.81,74080.0,1.37,-15.29,-20.19,0,*44
1497117995.78,3759,18.81,74082.3,1.39,-15.15,-20.05,0,*49
1497117996.97,3760,18.81,74082.8,1.39,-15.11,-19.91,0,*40
1497117998.19,3761,18.81,74082.3,1.39,-14.97,-19.91,0,*4E
1497117999.44,3762,18.81,74080.8,1.43,-14.83,-19.75,0,*4F
1497118000.66,3763,18.81,74082.0,1.39,-14.69,-19.61,0,*42
1497118001.9,3764,18.81,74084.0,1.43,-14.61,-19.31,0,*45
1497118003.13,3765,18.81,74086.0,1.39,-14.37,-19.23,0,*49
1497118004.33,3766,18.81,74084.8,1.39,-14.29,-19.13,0,*46
1497118005.53,3767,18.81,74084.0,1.39,-14.23,-19.13,0,*4D
1497118006.81,3768,18.81,74080.3,1.43,-14.05,-18.93,0,*42
1497118008.04,3769,18.81,74084.3,1.39,-14.05,-18.83,0,*4F
1497118009.27,3770,18.81,74082.3,1.39,-13.97,-18.69,0,*4F
1497118010.49,3771,18.81,74086.5,1.43,-13.69,-18.65,0,*4E
1497118011.71,3772,18.81,74086.0,1.43,-13.65,-18.49,0,*4F
1497118012.91,3773,18.81,74086.8,1.39,-13.65,-18.41,0,*4B
1497118014.1,3774,18.81,74086.0,1.39,-13.55,-18.41,0,*4F
1497118015.35,3775,18.81,74086.0,1.43,-13.37,-18.21,0,*41
1497118016.6,3776,18.81,74084.0,1.43,-13.37,-18.21,0,*42
1497118017.82,3777,18.81,74084.5,1.45,-13.23,-17.93,0,*46
1497118019.07,3778,18.81,74084.5,1.43,-13.11,-17.93,0,*4E
1497118020.31,3779,18.81,74084.3,1.43,-13.11,-17.93,0,*4F
1497118021.52,3780,18.81,74082.5,1.45,-13.07,-17.87,0,*4D
1497118022.74,3781,18.81,74084.8,1.43,-12.97,-17.73,0,*49
1497118024.01,3782,18.81,74082.0,1.43,-12.83,-17.63,0,*4E
1497118025.28,3783,18.81,74082.5,1.43,-12.75,-17.41,0,*46
1497118026.56,3784,18.81,74084.0,1.43,-12.65,-17.41,0,*40
1497118027.83,3785,18.81,74084.0,1.43,-12.61,-17.25,0,*47
1497118029.08,3786,18.81,74084.3,1.43,-12.47,-17.11,0,*47
1497118030.33,3787,18.81,74086.8,1.43,-12.35,-16.97,0,*4C
1497118031.55,3788,18.81,74086.3,1.43,-12.25,-16.89,0,*4D
1497118032.76,3789,18.81,74086.0,1.45,-12.21,-16.83,0,*44
1497118034.01,3790,18.81,74084.5,1.45,-12.11,-16.69,0,*4B
1497118035.26,3791,18.81,74084.3,1.45,-12.11,-16.69,0,*4A
1497118036.51,3792,18.81,74086.3,1.45,-12.11,-16.69,0,*49
1497118037.73,3793,18.81,74084.3,1.47,-12.03,-16.55,0,*46
1497118038.97,3794,18.81,74084.5,1.45,-11.93,-16.41,0,*4C
1497118040.24,3795,18.81,74082.8,1.47,-11.89,-16.23,0,*40
1497118041.49,3796,18.81,74080.3,1.45,-11.67,-16.23,0,*41
1497118042.76,3797,18.81,74086.5,1.47,-11.73,-16.17,0,*40
1497118044.02,3798,18.81,74084.3,1.45,-11.67,-16.09,0,*47
1497118045.25,3799,18.81,74084.0,1.45,-11.67,-15.95,0,*40
1497118046.5,3800,18.81,74088.5,1.45,-11.63,-15.85,0,*4A
1497118047.76,3801,18.81,74088.5,1.45,-11.55,-15.81,0,*4A
1497118048.99,3802,18.81,74086.8,1.45,-11.51,-15.71,0,*42
1497118050.19,3803,18.81,74082.8,1.49,-11.45,-15.53,0,*4A
1497118051.47,3804,18.81,74086.0,1.47,-11.33,-15.35,0,*42
1497118052.72,3805,18.81,74086.0,1.47,-11.23,-15.21,0,*47
1497118053.94,3806,18.81,74082.8,1.49,-11.23,-15.21,0,*4A
1497118055.17,3807,18.81,74084.5,1.47,-11.19,-15.29,0,*44
1497118056.4,3808,18.81,74082.5,1.47,-11.23,-15.15,0,*4D
1497118057.6,3809,18.81,74082.5,1.49,-11.11,-15.07,0,*40
1497118058.84,3810,18.81,74082.0,1.47,-11.11,-14.93,0,*4A
1497118060.09,3811,18.81,74084.5,1.47,-11.11,-14.93,0,*4B
1497118061.35,3812,18.81,74086.5,1.47,-11.07,-14.89,0,*44
1497118062.57,3813,18.81,74084.3,1.51,-10.93,-14.69,0,*40
1497118063.77,3814,18.81,74086.3,1.49,-10.97,-14.65,0,*46
1497118064.97,3815,18.81,74086.3,1.49,-10.93,-14.61,0,*47
1497118066.22,3816,18.81,74086.8,1.47,-10.89,-14.47,0,*45
1497118067.44,3817,18.81,74084.0,1.49,-10.89,-14.43,0,*4E
1497118068.65,3818,18.81,74084.3,1.49,-10.93,-14.43,0,*4A
1497118069.87,3819,18.81,74086.8,1.49,-10.79,-14.33,0,*48
1497118071.07,3820,18.81,74084.5,1.49,-10.89,-14.29,0,*46
1497118072.29,3821,18.81,74088.3,1.51,-10.85,-14.23,0,*48
1497118073.54,3822,18.81,74084.5,1.51,-10.71,-14.23,0,*40
1497118074.78,3823,18.81,74086.5,1.49,-10.75,-14.05,0,*48
1497118076.03,3824,18.81,74084.3,1.49,-10.75,-14.01,0,*4B
1497118077.28,3825,18.81,74086.5,1.49,-10.67,-13.87,0,*40
1497118078.52,3826,18.81,74086.3,1.49,-10.67,-13.79,0,*42
1497118079.77,3827,18.81,74090.0,1.51,-10.63,-13.73,0,*44
1497118081.04,3828,18.81,74084.0,1.51,-10.75,-13.83,0,*43
1497118082.28,3829,18.81,74086.0,1.51,-10.75,-13.69,0,*46
1497118083.5,3830,18.81,74090.8,1.53,-10.71,-13.55,0,*47
1497118084.75,3831,18.81,74086.3,1.51,-10.71,-13.55,0,*44
1497118086.03,3832,18.81,74084.5,1.51,-10.75,-13.61,0,*44
1497118087.28,3833,18.81,74084.5,1.51,-10.71,-13.51,0,*42
1497118088.52,3834,18.81,74084.3,1.51,-10.71,-13.51,0,*45
1497118089.8,3835,18.81,74084.8,1.51,-10.75,-13.37,0,*40
1497118091.07,3836,18.81,74084.8,1.51,-10.75,-13.37,0,*43
1497118092.31,3837,18.81,74086.0,1.51,-10.75,-13.43,0,*41
1497118093.58,3838,18.81,74084.8,1.51,-10.71,-13.37,0,*49
1497118094.82,3839,18.81,74084.5,1.51,-10.85,-13.29,0,*4C
1497118096.07,3840,18.81,74086.3,1.51,-10.75,-13.15,0,*42
1497118097.29,3841,18.81,74086.5,1.53,-10.71,-13.07,0,*46
1497118098.51,3842,18.81,74088.5,1.53,-10.71,-12.97,0,*4D
1497118099.74,3843,18.81,74084.0,1.53,-10.71,-12.93,0,*48
1497118100.99,3844,18.81,74080.5,1.53,-10.67,-12.83,0,*49
1497118102.24,3845,18.81,74086.3,1.53,-10.71,-12.83,0,*4F
1497118103.49,3846,18.81,74084.3,1.53,-10.71,-12.83,0,*4C
1497118104.77,3847,18.81,74084.0,1.55,-10.71,-12.71,0,*46
1497118106.02,3848,18.81,74084.0,1.53,-10.71,-12.65,0,*4A
1497118107.26,3849,18.81,74084.8,1.53,-10.71,-12.65,0,*4B
1497118108.47,3850,18.81,74086.3,1.53,-10.85,-12.65,0,*48